星链-37120(STARLINK-37120)

导读

STARLINK-37120(NORAD编号68211)是美国SpaceX公司星链(Starlink)项目的低轨通信卫星,部署于近地轨道,属于星链卫星互联网组网的组成部分。星链星座通过大规模低轨卫星部署,为全球提供低时延宽带互联网接入服务。该卫星采用星链标准设计,配备相控阵天线与推进系统,支持动态波束调度和轨道机动。曾有星链卫星出现轨道异常事件,SpaceX会对故障卫星监控,最终使其再入大气层烧毁,降低太空碎片风险。

基本信息
目录编号:
68211
目录名称:
STARLINK-37120
国际标识:
2026-053E
轨道中心:
EARTH
卫星名称:
星链-37120
卫星全名:
星链-37120(STARLINK-37120)
卫星状态:
在轨 (已飞行179 天)
发射日期:
2026-03-17 UTC
国别 :
美国 (US)
星等 :
--
该卫星已列入 空间交会检测服务 Space Conjunction Data Service (SCDS) ,当前飞行风险评估等级: 无高风险
轨道信息
数据来源 国际轨道数据
星历时间: 2026-09-11T23:36:10+0800
11小时前
查看轨道信息
半长轴: 6843.7km
偏心率: 0.0001961
轨道倾角: 97.282°
近地点辐角 123.595°
升交点赤经 128.499°
平近点角 236.548°
近地点: 464.22km
远地点: 466.906km
周期: 93.907分钟
每日圈数: 15.334386
详细信息
固有亮度:
5
最大亮度:
2.5
卫星平台:
Starlink V1.0
覆盖范围:
全球
运营商:
太空探索技术公司
运营商所在国:
美国
制造商(研发单位):
太空探索技术公司
制造商所在国:
美国
使用方式:
暂无
卫星简介
Starlink 计划是 SpaceX 推出的全球卫星互联网项目,通过发射低轨道卫星,为全球尤其是偏远地区提供高速、低延迟的互联网服务。自 2019 年起,Starlink 已部署数千颗卫星,旨在缩小全球数字鸿沟,推动互联网普及。该项目还为军事、航空等行业提供通信支持,带来广泛经济效益。
2D轨道图
3D轨道图
轨道高度分析图
轨道倾角分析图
轨道综合分析图
查看轨道综合分析图
交会数据列表
事件ID 空间交会对象 最接近时刻(TCA) 交会距离 交会风险概率(CRP) 交会风险指数(CRI) 操作
CDM_260914-093405-253906-821121
2026-09-14T
09:34:03+0000
1.546 km
极远距离
5.865411E-6 低风险 0.5
CDM_260914-145405-229706-821121
2026-09-14T
14:54:31+0000
2.500 km
极远距离
1.750933E-6 低风险 0.4
CDM_260910-104304-857406-821121
2026-09-10T
10:43:12+0000
2.549 km
极远距离
1.687615E-6 低风险 0.4
CDM_260914-084405-228106-821121
2026-09-14T
08:44:20+0000
2.649 km
极远距离
1.569206E-6 低风险 0.39
CDM_260908-050904-521206-821121
2026-09-08T
05:09:31+0000
2.575 km
极远距离
1.565641E-6 低风险 0.39
CDM_260913-065606-151806-821121
2026-09-13T
06:56:54+0000
2.653 km
极远距离
1.53895E-6 低风险 0.39
CDM_260914-053905-253906-821121
2026-09-14T
05:39:13+0000
2.836 km
极远距离
1.393019E-6 低风险 0.38
CDM_260906-155104-779906-821122
2026-09-06T
15:51:31+0000
2.712 km
极远距离
9.118083E-7 极低风险 0.34
与全量物体交会距离演化趋势
与全量物体交会风险概率演化趋势